Location: ?????oe
(44.4874°N, 135.7046°E)
Time: 11:19:31
(UTC+00:00)

FengYun 1-2 T - Visible Passes

Search period start: 15 March 2026 00:00
Search period end: 25 March 2026 00:00
Orbit: 844 x 880 km, 98.8° (Epoch: 14 March)

Date Brightness Start Highest point End Pass type
(mag) Time Alt. Az. Time Alt. Az. Time Alt. Az.
15 Mar 5.2 19:10:09 10° NNE 19:15:30 46° E 19:20:52 10° S visible
16 Mar 5.5 19:01:48 10° NNE 19:07:00 39° E 19:12:13 10° SSE visible
17 Mar 5.8 18:53:28 10° NNE 18:58:30 34° E 19:03:31 10° SSE visible
17 Mar 4.8 20:34:21 10° N 20:39:25 37° WNW 20:44:30 10° SW visible
18 Mar 6.1 18:45:11 10° NE 18:49:58 29° E 18:54:46 10° SSE visible
18 Mar 4.6 20:25:47 10° N 20:31:01 43° WNW 20:36:16 10° SW visible
19 Mar 6.3 18:36:55 10° NE 18:41:26 25° E 18:45:56 10° SSE visible
19 Mar 4.5 20:17:14 10° N 20:22:37 50° WNW 20:28:00 10° SW visible
20 Mar 6.6 18:28:44 10° NE 18:32:53 21° E 18:37:02 10° SE visible
20 Mar 4.3 20:08:43 10° N 20:14:11 59° WNW 20:19:41 10° SSW visible
21 Mar 6.8 18:20:38 10° NE 18:24:20 18° E 18:28:01 10° SE visible
21 Mar 4.2 20:00:12 10° N 20:05:45 69° WNW 20:11:20 10° SSW visible
22 Mar 6.9 18:12:39 10° NE 18:15:46 15° E 18:18:53 10° ESE visible
22 Mar 4.2 19:51:43 10° NNE 19:57:19 81° WNW 20:02:55 10° SSW visible
23 Mar 7.0 18:04:52 10° ENE 18:07:11 12° E 18:09:29 10° ESE visible
23 Mar 4.3 19:43:15 10° NNE 19:48:52 87° ESE 19:54:29 10° SSW visible
24 Mar 7.2 17:57:56 10° E 17:58:35 10° E 17:59:14 10° E visible
24 Mar 4.5 19:34:47 10° NNE 19:40:24 75° ESE 19:46:02 10° S visible
